Meteo Giornale » Osservazioni meteo Panama » Panama Pacifico

ore: 16:00 - Osservazioni Meteo Panama Pacifico
Lat. 8° 55' N Lon. 79° 36' W Alt. 13 metri s.l.m.

nuvoloso

31 °C

Nuvoloso

Temp. 24 Ore

24 °C

32 °C

Nord-Ovest

9.3 Km/h

Dew point 26 °C

Umidità 74 %

Visibilità  10 Km

Il sole sorge alle ore 06:09

Il sole tramonta alle ore 18:26

Data e Ora Cielo e Fenomeni T °C DP °C Um. % Pres. hPa Vis. km Vento km/h
Oggi h: 16:00 nuvoloso Nuvoloso 31 26 74 1009 10 NO 9.3
Oggi h: 15:00 nuvoloso Nuvoloso 32 25 66 1009 10 NO 13
Oggi h: 14:00 nuvoloso Nuvoloso 32 26 70 1010 10 N/NO 14.8
Oggi h: 13:00 nuvoloso Nuvoloso 32 25 66 1011 10 N/NO 13
Oggi h: 12:00 nuvoloso Nuvoloso 31 26 74 1012 10 NO 9.3
Oggi h: 11:00 nuvoloso Nuvoloso 31 26 74 1013 10 N/NO 9.3
Oggi h: 10:00 nuvoloso Nuvoloso 30 26 79 1012 10 N 5.5
Oggi h: 09:00 nuvoloso Nuvoloso 29 26 83 1012 10 N 5.5
Oggi h: 08:00 nuvoloso Nuvoloso 26 25 94 1012 10 N 1.8
Oggi h: 07:00 nuvoloso Nuvoloso 25 24 94 1011 10 N 5.5
Oggi h: 06:00 poco_nuvoloso Poco Nuvoloso 24 24 100 1010 10 N 5.5
Oggi h: 05:00 sereno Sereno 24 24 100 1013 10 N 5.5
Oggi h: 04:00 poco_nuvoloso Poco Nuvoloso 25 24 94 1013 10 N/NO 11.1
Oggi h: 03:00 sereno Sereno 25 24 94 1013 10 N 1.8
Oggi h: 02:00 sereno Sereno 25 24 94 1014 10 N 3.7
Oggi h: 01:00 poco_nuvoloso Poco Nuvoloso 26 25 94 1013 10 N 3.7
Oggi h: 00:00 poco_nuvoloso Poco Nuvoloso 26 25 94 1014 10 N 1.8
Ieri h: 23:00 nuvoloso Nuvoloso 26 25 94 1014 10 N 5.5
Ieri h: 22:00 poco_nuvoloso Poco Nuvoloso 27 25 88 1012 10 N 5.5
Ieri h: 21:00 poco_nuvoloso Poco Nuvoloso 27 25 88 1011 10 N 5.5
Ieri h: 20:00 poco_nuvoloso Poco Nuvoloso 27 25 88 1010 10 N 3.7
Ieri h: 19:00 coperto_pioggia Pioviggine 27 25 88 1012 9 N/NO 7.4
Ieri h: 18:00 coperto_pioggia Pioviggine 26 25 94 1011 9 N 1.8